Location: Unspecified
(52.4292°N, 19.3359°E)
Time: 00:46:21
(UTC+02:00)

SR - Pass Details

Date: 27 May 2024
Orbit: 580 x 858 km, 66.7° (Epoch: 12 June)

Event Time Altitude Azimuth Distance (km) Brightness Sun altitude
Rises 16:30:45 0° 180° (S) 3,216 ? 36.4°
Reaches altitude 10° 16:33:33 10° 168° (SSE) 2,245 ? 36.0°
Maximum altitude 16:37:39 25° 114° (ESE) 1,409 ? 35.3°
Drops below altitude 10° 16:41:32 10° 60° (ENE) 2,108 ? 34.8°
Sets 16:44:05 0° 47° (NE) 2,979 ? 34.4°
